Home   Weather   Gafsa   Past weeks
Flag for Tunisia

Past Weather in Gafsa, Tunisia — Yesterday and Last 2 Weeks

Now
68 °F

Passing clouds.


Feels Like: 68 °F
Forecast: 82 / 64 °F
Wind: No wind

Location: Gafsa Airport

Current Time: Oct 14, 2019 at 2:29:08 am

Latest Report: Oct 14, 2019 at 1:00 am


Visibility: N/A

Pressure: 30.12 "Hg

Humidity: 78%

Dew Point: 61 °F

Location of GafsaLocation

Past Weather in Gafsa — Graph

°F

Gafsa Temperature Yesterday

Maximum temperature yesterday: 82 °F (at 1:00 pm)
Minimum temperature yesterday: 57 °F (at 6:00 am)
Average temperature yesterday: 71 °F

High & Low Weather Summary for the Past Weeks

 TemperatureHumidityPressure
High93 °F (Oct 2, 2:00 pm)83% (Sep 30, 8:00 am)30.21 "Hg (Sep 30, 8:00 am)
Low57 °F (Oct 5, 7:00 am)16% (Oct 2, 2:00 pm)29.65 "Hg (Oct 2, 4:00 pm)
Average75 °F47%29.97 "Hg
* Reported Sep 29 1:00 am — Oct 14 1:00 am, Gafsa. Weather by CustomWeather, © 2019

Note: Actual official high and low records may vary slightly from our data, if they occured in-between our weather recording intervals... More about our weather records

Advertising

Gafsa Weather History for the Previous 24 Hours

Scroll right to see more
 ConditionsComfort  
Time TempWeatherWind HumidityBarometerVisibility
1:00 am
Mon, Oct 14
68 °FPassing clouds.No wind78%30.12 "HgN/A
12:00 am75 °FPassing clouds.3 mph57%30.12 "HgN/A
11:00 pm
Sun, Oct 13
72 °FPassing clouds.3 mph69%30.12 "HgN/A
8:00 pm75 °FPassing clouds.5 mph47%30.09 "Hg5 mi
7:00 pm77 °FPassing clouds.6 mph47%30.09 "Hg5 mi
6:00 pm77 °FPassing clouds.5 mph44%30.07 "Hg5 mi
5:00 pm79 °FPartly sunny.6 mph45%30.07 "Hg5 mi
4:00 pm81 °FScattered clouds.5 mph42%30.07 "Hg5 mi
3:00 pm81 °FScattered clouds.5 mph42%30.09 "Hg5 mi
2:00 pm82 °FScattered clouds.7 mph37%30.09 "Hg5 mi
1:00 pm82 °FScattered clouds.6 mph40%30.12 "Hg5 mi
12:00 pm81 °FPassing clouds.6 mph42%30.15 "Hg5 mi
11:00 am77 °FPassing clouds.3 mph47%30.15 "Hg5 mi
10:00 am72 °FClear.5 mph57%30.18 "Hg5 mi
9:00 am68 °FClear.7 mph56%30.18 "Hg5 mi
8:00 am63 °FClear.6 mph64%30.18 "Hg5 mi
7:00 am59 °FSunny.6 mph72%30.18 "Hg10 mi
6:00 am57 °FClear.7 mph77%30.18 "Hg10 mi
5:00 am59 °FClear.5 mph72%30.18 "Hg10 mi
4:00 am59 °FClear.3 mph77%30.18 "Hg10 mi
3:00 am61 °FPassing clouds.5 mph72%30.18 "HgN/A
2:00 am66 °FPassing clouds.3 mph64%30.15 "HgN/A
Weather by CustomWeather, © 2019

See weather overview